Weather History for Nome, AK

Change the Weather History Date:

Saturday, February 15, 2014

  Actual Average Record
Temperature  
Mean Temperature -2 °F -  
Max Temperature 4 °F 16 °F 36 °F (1968)
Min Temperature -8 °F - -37 °F (1957)
Degree Days  
Heating Degree Days 67 57  
Month to date heating degree days 802 877  
Since 1 July heating degree days 7513 8548  
Cooling Degree Days 0    
Month to date cooling degree days 0  
Year to date cooling degree days 0  
Moisture  
Dew Point -13 °F    
Average Humidity 0    
Maximum Humidity 0    
Minimum Humidity 0    
Precipitation  
Precipitation 0.00 in 0.04 in 0.27 in (1956)
Month to date precipitation 0.01 0.50  
Year to date precipitation 1.58 1.44  
Snow  
Snow 0.00 in 0.40 in 5.00 in (2011)
Month to date snowfall 0.6 6.3  
Since 1 July snowfall 45.8 50.8  
Snow Depth 4.00 in    
Sea Level Pressure  
Sea Level Pressure 29.29 in    
Wind  
Wind Speed 12 mph (North)    
Max Wind Speed 23 mph    
Max Gust Speed 31 mph    
Visibility 10 miles    
Events      
T = Trace of Precipitation, MM = Missing Value Source: NWS Daily Summary

Daily Weather History Graph

Daily Weather History Graph

Search for Another Location

Airport:

Trip Planner

Search our weather history database for the weather conditions in past years. The results will help you decide how hot, cold, wet, or windy it might be!

Date:

Astronomy

Feb. 15, 2014 Rise Set
Actual Time 9:57 AM AKST 6:35 PM AKST
Civil Twilight 9:06 AM AKST 7:27 PM AKST
Nautical Twilight 8:09 AM AKST 8:23 PM AKST
Astronomical Twilight 7:13 AM AKST 9:20 PM AKST
Moon 8:30 PM AKST (2/15) 9:28 AM AKST (2/15)
Length of Visible Light 10h 21m
Length of Day
8h 37m
Full, 99% of the Moon is Illuminated
Feb 15
Full
Feb 22
Last Quarter
Feb 28
New
Mar 8
First Quarter
Mar 16
Full

Hourly Weather History & Observations

Time (AKST) Temp. Windchill Dew Point Humidity Pressure Visibility Wind Dir Wind Speed Gust Speed Precip Events Conditions
12:53 AM 1.0 °F - -14.1 °F 49% 29.45 in 10.0 mi Calm Calm - N/A   Clear
1:53 AM -0.9 °F -11.0 °F -14.1 °F 54% 29.43 in 10.0 mi NW 4.6 mph - N/A   Clear
2:53 AM -4.0 °F -20.2 °F -15.0 °F 59% 29.42 in 10.0 mi East 9.2 mph - N/A   Clear
3:53 AM -8.0 °F -19.2 °F -16.1 °F 68% 29.39 in 10.0 mi NNE 4.6 mph - N/A   Clear
4:53 AM -4.0 °F -22.1 °F -16.1 °F 56% 29.39 in 10.0 mi NE 11.5 mph - N/A   Clear
5:53 AM -5.1 °F -22.5 °F -16.1 °F 59% 29.38 in 10.0 mi North 10.4 mph - N/A   Clear
6:53 AM -4.0 °F -23.0 °F -15.0 °F 59% 29.37 in 10.0 mi North 12.7 mph 23.0 mph N/A   Clear
7:53 AM -2.0 °F -23.9 °F -15.0 °F 54% 29.37 in 10.0 mi North 18.4 mph - N/A   Clear
8:53 AM -0.0 °F -18.0 °F -14.1 °F 52% 29.35 in 10.0 mi North 12.7 mph 21.9 mph N/A   Clear
9:53 AM -0.0 °F -18.7 °F -14.1 °F 52% 29.33 in 10.0 mi NNE 13.8 mph - N/A   Clear
10:53 AM -0.9 °F -15.3 °F -13.0 °F 57% 29.32 in 10.0 mi North 8.1 mph - N/A   Partly Cloudy
11:53 AM 1.0 °F -18.0 °F -13.0 °F 52% 29.31 in 10.0 mi North 15.0 mph 21.9 mph N/A   Partly Cloudy
12:53 PM 1.9 °F -19.2 °F -11.9 °F 52% 29.30 in 10.0 mi North 19.6 mph 25.3 mph N/A   Partly Cloudy
1:53 PM 1.0 °F -16.6 °F -11.9 °F 55% 29.28 in 10.0 mi NNE 12.7 mph 21.9 mph N/A   Partly Cloudy
2:53 PM 1.9 °F -18.7 °F -11.0 °F 55% 29.26 in 10.0 mi NNE 18.4 mph - N/A   Clear
3:53 PM 3.0 °F -15.5 °F -11.9 °F 50% 29.25 in 10.0 mi North 15.0 mph 23.0 mph N/A   Partly Cloudy
4:53 PM 3.0 °F -18.8 °F -11.0 °F 52% 29.23 in 10.0 mi North 21.9 mph - N/A   Scattered Clouds
5:53 PM 1.9 °F -14.7 °F -11.0 °F 55% 29.21 in 10.0 mi North 11.5 mph - N/A   Partly Cloudy
6:53 PM -0.0 °F -17.1 °F -11.9 °F 57% 29.18 in 10.0 mi North 11.5 mph - N/A   Scattered Clouds
7:53 PM 1.0 °F - -11.0 °F 57% 29.17 in 10.0 mi Calm Calm - N/A   Mostly Cloudy
8:53 PM 1.9 °F -14.7 °F -11.0 °F 55% 29.15 in 10.0 mi NNE 11.5 mph - N/A   Mostly Cloudy
9:53 PM -0.0 °F -15.3 °F -9.9 °F 63% 29.13 in 10.0 mi North 9.2 mph - N/A   Mostly Cloudy
10:53 PM 1.9 °F -16.2 °F -9.0 °F 60% 29.12 in 10.0 mi North 13.8 mph - N/A   Overcast
11:53 PM 3.9 °F -15.6 °F -6.0 °F 64% 29.09 in 10.0 mi North 17.3 mph - N/A   Overcast